GW5164 Weather Reports


Display with metric or nautical units.
time (UTC)temp
F
wind
direction
speed
MPH
gust
MPH
rain 1hr
in
rain 24hr
in
rain mn
in
humidity
%
barometer
mb
20260906064605 68 0 0.0 0.0 0.00 0.23 0.00 95 1012.1
20260906063103 68 0 0.0 0.0 0.00 0.23 0.00 95 1012.2
20260906061610 69 0 0.0 0.0 0.00 0.23 0.00 95 1012.5
20260906060112 69 0 0.0 0.0 0.00 0.23 0.00 95 1012.7
20260906054607 69 0 0.0 0.0 0.00 0.23 0.00 95 1012.8
20260906053104 69 0 0.0 1.0 0.00 0.23 0.00 95 1012.9
20260906051606 69 0 0.0 0.0 0.00 0.23 0.00 94 1013.0
20260906050108 70 0 0.0 0.0 0.00 0.23 0.00 94 1013.2
20260906044606 70 0 0.0 0.0 0.00 0.23 0.00 95 1013.2
20260906043102 70 283 1.0 1.0 0.00 0.23 0.00 94 1013.2
20260906041605 70 326 1.0 2.0 0.00 0.23 0.00 95 1013.4
20260906040105 70 0 0.0 1.0 0.00 0.23 0.00 95 1013.5
20260906034611 70 0 0.0 1.0 0.00 0.23 0.23 94 1013.3
20260906033105 71 337 0.0 0.0 0.00 0.23 0.23 95 1013.6
20260906031607 70 0 0.0 2.0 0.00 0.23 0.23 94 1013.6
20260906030059 71 0 0.0 2.0 0.00 0.23 0.23 94 1013.4
20260906024608 71 0 0.0 0.0 0.00 0.23 0.23 93 1013.2
20260906023102 71 267 1.0 2.0 0.00 0.23 0.23 93 1013.2
20260906021608 72 0 0.0 2.0 0.00 0.23 0.23 93 1013.2
20260906020124 72 0 1.0 2.0 0.00 0.23 0.23 93 1013.0
20260906014604 72 120 0.0 1.0 0.00 0.23 0.23 92 1013.2
20260906013108 73 0 1.0 3.0 0.00 0.23 0.23 92 1013.1
20260906011559 73 0 0.0 1.0 0.00 0.23 0.23 92 1012.8
20260906010106 74 245 0.0 1.0 0.00 0.23 0.23 91 1012.7
20260906004604 75 248 0.0 2.0 0.00 0.23 0.23 90 1012.6
20260906003124 75 0 0.0 0.0 0.00 0.23 0.23 89 1012.4
20260906001617 76 0 0.0 1.0 0.00 0.23 0.23 86 1012.1
20260906000108 78 0 0.0 2.0 0.00 0.23 0.23 83 1011.9
20260905234606 79 37 0.0 1.0 0.00 0.23 0.23 80 1011.9
20260905233107 84 0 0.0 0.0 0.00 0.23 0.23 71 1011.6
20260905231604 86 0 0.0 1.0 0.00 0.23 0.23 68 1011.6
20260905230112 85 0 0.0 1.0 0.00 0.23 0.23 72 1011.7
20260905224611 85 107 1.0 3.0 0.00 0.23 0.23 69 1011.6
20260905223104 84 319 1.0 7.0 0.00 0.23 0.23 68 1011.6
20260905221607 84 338 3.0 6.0 0.00 0.23 0.23 67 1011.7
20260905220109 84 263 3.0 6.0 0.00 0.23 0.23 66 1011.7
20260905214603 84 271 1.0 6.0 0.00 0.23 0.23 67 1012.0
20260905213105 84 205 3.0 6.0 0.00 0.23 0.23 68 1012.2
20260905211630 84 261 1.0 5.0 0.00 0.23 0.23 72 1012.2
20260905210120 83 289 2.0 7.0 0.00 0.23 0.23 71 1012.1
20260905204605 82 226 1.0 3.0 0.00 0.23 0.23 79 1012.2
20260905203119 81 215 1.0 5.0 0.00 0.23 0.23 80 1012.2
20260905201604 81 0 1.0 3.0 0.00 0.23 0.23 79 1012.5
20260905194608 81 311 2.0 4.0 0.00 0.23 0.23 72 1012.6
20260905193108 80 335 1.0 3.0 0.00 0.23 0.23 76 1012.4
20260905191605 79 220 2.0 6.0 0.00 0.23 0.23 82 1012.7
20260905184603 77 326 1.0 4.0 0.00 0.23 0.23 88 1012.1
20260905183108 75 0 0.0 4.0 0.07 0.23 0.23 90 1012.6
20260905181612 75 227 1.0 4.0 0.17 0.23 0.23 90 1012.8
20260905180100 75 0 0.0 2.0 0.23 0.23 0.23 88 1013.3
20260905174604 76 0 0.0 10.0 0.23 0.23 0.23 85 1014.2
20260905173103 79 221 3.0 15.0 0.16 0.16 0.16 76 1014.6
20260905171603 88 223 4.0 9.0 0.05 0.05 0.05 70 1013.9
20260905170105 92 285 4.0 9.0 0.00 0.00 0.00 57 1013.8
20260905164606 93 296 2.0 7.0 0.00 0.00 0.00 56 1014.0
20260905163108 92 319 6.0 10.0 0.00 0.00 0.00 57 1014.1
20260905161604 93 209 5.0 9.0 0.00 0.00 0.00 54 1014.1
20260905160134 92 285 4.0 7.0 0.00 0.00 0.00 54 1014.5
20260905154602 92 357 4.0 6.0 0.00 0.00 0.00 55 1014.5
20260905153103 91 269 3.0 5.0 0.00 0.00 0.00 57 1014.4
20260905151608 91 44 2.0 6.0 0.00 0.00 0.00 58 1014.2
20260905150101 90 237 2.0 7.0 0.00 0.00 0.00 60 1014.3
20260905144605 89 267 3.0 7.0 0.00 0.00 0.00 62 1014.4
20260905143108 89 259 2.0 6.0 0.00 0.00 0.00 64 1014.5
20260905141603 87 262 3.0 5.0 0.00 0.00 0.00 65 1014.3
20260905140105 86 272 1.0 3.0 0.00 0.00 0.00 70 1014.3
20260905134617 86 133 0.0 1.0 0.00 0.00 0.00 70 1014.3
20260905133101 82 0 0.0 2.0 0.00 0.00 0.00 77 1014.6
20260905131606 80 110 0.0 1.0 0.00 0.00 0.00 82 1014.8
20260905130059 77 113 0.0 1.0 0.00 0.00 0.00 86 1014.8
20260905124558 75 113 0.0 1.0 0.00 0.00 0.00 87 1014.8
20260905123105 74 0 0.0 0.0 0.00 0.00 0.00 90 1014.7
20260905121601 72 0 0.0 0.0 0.00 0.00 0.00 92 1014.6
20260905120120 71 0 0.0 0.0 0.00 0.00 0.00 94 1014.4
20260905114605 70 0 0.0 0.0 0.00 0.00 0.00 93 1014.3
20260905113101 69 0 0.0 0.0 0.00 0.00 0.00 94 1014.1
20260905111611 69 0 0.0 0.0 0.00 0.00 0.00 94 1014.0
20260905110104 69 0 0.0 0.0 0.00 0.00 0.00 94 1013.8
20260905104603 69 0 0.0 0.0 0.00 0.00 0.00 94 1013.7
20260905103102 69 0 0.0 0.0 0.00 0.00 0.00 94 1013.8
20260905101606 69 0 0.0 1.0 0.00 0.00 0.00 94 1013.6
20260905100059 69 0 0.0 0.0 0.00 0.00 0.00 93 1013.6
20260905094558 70 0 0.0 1.0 0.00 0.00 0.00 94 1013.4
20260905093102 69 0 0.0 0.0 0.00 0.00 0.00 93 1013.4
20260905091621 70 0 0.0 0.0 0.00 0.00 0.00 93 1013.5
20260905090120 70 0 0.0 0.0 0.00 0.00 0.00 93 1013.5
20260905084610 70 0 0.0 0.0 0.00 0.00 0.00 93 1013.6
20260905083101 70 0 0.0 0.0 0.00 0.00 0.00 93 1013.9
20260905081556 70 348 0.0 1.0 0.00 0.00 0.00 92 1014.0
20260905080101 71 0 0.0 1.0 0.00 0.00 0.00 92 1014.1
20260905074603 71 0 0.0 1.0 0.00 0.00 0.00 92 1014.3
20260905073104 71 338 1.0 2.0 0.00 0.00 0.00 91 1014.3
20260905071558 71 0 0.0 1.0 0.00 0.00 0.00 92 1014.3
20260905070101 71 0 0.0 0.0 0.00 0.00 0.00 91 1014.5